Regional Weather Roundup
Issued by NWS

Home | Current Version | Previous Version | Text Only | Print | Product List | Glossary On
Versions: 1 2 3 4 5 6 7 8 9 10 11 12 13 14 15 16 17 18 19 20 21 22 23 24 25 26 27 28 29 30 31 32 33 34 35 36 37 38 39 40 41 42 43 44 45 46 47 48 49 50
000
ASUS45 KSLC 270510
RWRUT

UTAH REGIONAL WEATHER ROUNDUP
NATIONAL WEATHER SERVICE SALT LAKE CITY UT
1100 PM MDT MON JUN 26 2017

UTZ001>011-023>025-270600-

NORTHERN UTAH

CITY           SKY/WX    TMP DP  RH WIND       PRES   REMARKS
BRIGHAM CITY   CLOUDY    83  39  20 SE9       29.85F
HILL AFB       CLOUDY    83  36  18 SE7       29.89S
LOGAN          CLOUDY    82  42  24 E16       29.87F
OGDEN          CLOUDY    85  38  18 S6        29.86S
SALT LAKE CITY MOCLDY    88  35  15 SE10      29.83S
TOOELE VALLEY  MOCLDY    72  37  28 S6        29.85S
WENDOVER         N/A     88  35  15 NW21G26   29.85R
HEBER CITY     MOCLDY    64  41  42 CALM      30.00S
WEST JORDAN    MOCLDY    78  48  34 SW7       29.89S

$$

UTZ011>015-024>027-270600-

CENTRAL/NORTHEAST UTAH

CITY           SKY/WX    TMP DP  RH WIND       PRES   REMARKS
PROVO AIRPORT  PTCLDY    76  47  35 MISG      29.91R
MOAB/CANYONLAN MOCLDY    87  25  10 S6        29.90S
DELTA          CLEAR     79  12   8 S15       29.94R
PRICE          PTCLDY    71  28  20 N8        30.03S
VERNAL         CLOUDY    73  41  31 NW3       30.01S

$$

UTZ013>016-019>022-027-270600-

SOUTHERN UTAH

CITY           SKY/WX    TMP DP  RH WIND       PRES   REMARKS
BRYCE CANYON   CLEAR     49  23  36 W7        30.27R
CEDAR CITY     CLEAR     73  13  10 SE9       30.07S
MILFORD        CLEAR     74  12   9 S13       29.99S
ST GEORGE      MOCLDY    87  14   6 S6        29.85R
HANKSVILLE     PTCLDY    82  27  13 W10       29.94R
BLANDING       PTCLDY    71  31  23 N6        30.15S

$$

REGIONAL REPORTS     COLORADO/ARIZONA

CITY           SKY/WX    TMP DP  RH WIND       PRES   REMARKS
CRAIG, CO      CLEAR     66  35  31 E5        30.10F
GRAND JUNCTION CLEAR     79  20  11 E6        29.96R
RIFLE, CO      CLEAR     70  31  23 SE8       30.06R
MONTROSE, CO   CLEAR     73  34  23 SE9       30.08R
CORTEZ, CO     CLEAR     64  39  39 E5        30.12R
COLORADO CITY    N/A     66  25  20 SE3       30.07S
PAGE, AZ       CLEAR     91  21   8 W6        29.97R
GRAND CANYON   CLEAR     63  21  20 SW3       30.23R
KINGMAN, AZ    CLEAR     82  21  10 S12       29.96R
FLAGSTAFF, AZ  CLEAR     72  20  14 SW10      30.27R

$$

REGIONAL REPORTS    NEVADA/IDAHO/WYOMING

CITY           SKY/WX    TMP DP  RH WIND       PRES   REMARKS
LAS VEGAS, NV  CLEAR     96   8   4 S12       29.80R
ELY, NY        CLEAR     74  31  20 W8        30.07R
ELKO, NV       PTCLDY    71  37  28 S8        30.00R
POCATELLO, ID  CLOUDY    70  48  45 NW8       29.91R
BURLEY, ID     CLOUDY    65  55  70 SW6       29.87R
FORT BRIDGER,    N/A     66  37  33 S13       30.14F
EVANSTON, WY   CLOUDY    72  35  25 CALM      30.14R
ROCK SPRINGS,  CLOUDY    68  29  23 SW8       30.10F
KEMMERER, WY     N/A     68  32  26 SE5       30.15S

$$



USA.gov is the U.S. government's official web portal to all federal, state and local government web resources and services.